This demonstration page uses our WeatherBlox Daily Observations layout. Learn more.

Left ArrowRight Arrow

Hourly Observations for May 28, 2017

Temp ( °F °C ) Dew Point ( °F °C ) Humidity (%) Winds ( mph kmh ) Pressure ( in mb ) Visibility ( mi km ) Precip ( " mm )
12:15 am 00:15 Cloudy 64 18 64 18 100 100 N N/A 29.94 1014 10 16 N/A
12:35 am 00:35 Partly Cloudy 64 18 64 18 100 100 NE 3 6 29.91 1013 10 16 N/A
12:55 am 00:55 Clear 63 17 63 17 100 100 NNE 3 6 29.91 1013 10 16 N/A
1:15 am 01:15 Clear 63 17 63 17 100 100 N N/A 29.91 1013 7 11 N/A
1:35 am 01:35 Clear 63 17 63 17 100 100 N N/A 29.91 1013 7 11 N/A
1:55 am 01:55 Partly Cloudy with Mist and Fog 61 16 61 16 100 100 N N/A 29.91 1013 5 8 N/A
2:15 am 02:15 Mostly Cloudy with Mist and Fog 63 17 63 17 100 100 N N/A 29.91 1013 4 6 N/A
2:35 am 02:35 Mostly Cloudy 63 17 63 17 100 100 N N/A 29.91 1013 7 11 N/A
2:55 am 02:55 Clear with Mist and Fog 61 16 61 16 100 100 NE 3 6 29.88 1012 5 8 N/A
3:15 am 03:15 Clear with Mist and Fog 61 16 61 16 100 100 N N/A 29.88 1012 4 6 N/A
3:35 am 03:35 Partly Cloudy with Mist and Fog 61 16 61 16 100 100 N N/A 29.88 1012 2 3 N/A
3:55 am 03:55 Clear with Mist and Fog 61 16 61 16 100 100 ENE 3 6 29.88 1012 4 6 N/A
4:15 am 04:15 Partly Cloudy with Mist and Fog 59 15 59 15 100 100 N N/A 29.88 1012 2 3 N/A
4:35 am 04:35 Mostly Cloudy with Mist and Fog 59 15 59 15 100 100 N N/A 29.88 1012 1 2 N/A
4:55 am 04:55 Mostly Cloudy with Fog 59 15 59 15 100 100 N N/A 29.88 1012 1 1 N/A
5:15 am 05:15 Clear with Mist and Fog 59 15 59 15 100 100 N N/A 29.88 1012 4 6 N/A
5:35 am 05:35 Clear with Mist and Fog 59 15 59 15 100 100 NE 3 6 29.88 1012 4 6 N/A
5:55 am 05:55 Mostly Cloudy with Mist and Fog 59 15 59 15 100 100 ENE 3 6 29.88 1012 2 3 N/A
6:15 am 06:15 Cloudy with Mist and Fog 61 16 61 16 100 100 NE 3 6 29.88 1012 3 4 N/A
6:35 am 06:35 Cloudy with Mist and Fog 61 16 61 16 100 100 N N/A 29.88 1012 3 5 N/A
6:55 am 06:55 Cloudy with Mist and Fog 61 16 61 16 100 100 N N/A 29.88 1012 3 5 N/A
7:15 am 07:15 Cloudy with Mist and Fog 61 16 61 16 100 100 N N/A 29.91 1013 4 6 N/A
7:35 am 07:35 Cloudy with Mist and Fog 61 16 61 16 100 100 N N/A 29.91 1013 4 6 N/A
7:55 am 07:55 Cloudy with Mist and Fog 61 16 61 16 100 100 N N/A 29.91 1013 4 6 N/A
8:15 am 08:15 Cloudy with Mist and Fog 63 17 63 17 100 100 NE 3 6 29.91 1013 5 8 N/A
8:35 am 08:35 Cloudy 63 17 63 17 100 100 NE 5 7 29.91 1013 7 11 N/A
8:55 am 08:55 Cloudy 64 18 63 17 94 94 N N/A 29.91 1013 7 11 N/A
9:15 am 09:15 Cloudy 64 18 63 17 94 94 E 3 6 29.91 1013 10 16 N/A
9:35 am 09:35 Cloudy 64 18 63 17 94 94 ENE 5 7 29.91 1013 10 16 N/A
9:55 am 09:55 Cloudy 64 18 63 17 94 94 ESE 7 11 29.91 1013 10 16 N/A
10:15 am 10:15 Partly Cloudy 68 20 64 18 88 88 N N/A 29.88 1012 10 16 N/A
10:35 am 10:35 Partly Cloudy 70 21 64 18 83 83 SE 5 7 29.88 1012 10 16 N/A
10:55 am 10:55 Cloudy 70 21 64 18 83 83 ESE 5 7 29.91 1013 10 16 N/A
11:15 am 11:15 Mostly Cloudy 70 21 64 18 83 83 SE 6 9 29.91 1013 10 16 N/A
11:35 am 11:35 Partly Cloudy 72 22 63 17 73 73 ESE 8 13 29.88 1012 10 16 N/A
11:55 am 11:55 Mostly Cloudy 72 22 63 17 73 73 ESE 7 11 29.91 1013 10 16 N/A
12:15 pm 12:15 Mostly Cloudy 72 22 63 17 73 73 E 6 9 29.88 1012 10 16 N/A
12:35 pm 12:35 Cloudy 72 22 63 17 73 73 SE 3 6 29.88 1012 10 16 N/A
12:55 pm 12:55 Cloudy with Light Rain 72 22 64 18 78 78 E 3 6 29.88 1012 10 16 N/A
1:15 pm 13:15 Cloudy with Light Rain 73 23 64 18 74 74 SSE 10 17 29.88 1012 10 16 N/A
1:35 pm 13:35 Cloudy 72 22 64 18 78 78 SE 8 13 29.88 1012 10 16 N/A
1:55 pm 13:55 Mostly Cloudy 72 22 64 18 78 78 SE 5 7 29.88 1012 10 16 N/A
2:15 pm 14:15 Mostly Cloudy 72 22 64 18 78 78 SE 8 13 29.88 1012 10 16 N/A
2:35 pm 14:35 Cloudy 70 21 64 18 83 83 ESE 8 13 29.88 1012 10 16 N/A
2:55 pm 14:55 Cloudy 70 21 64 18 83 83 SE 9 15 29.88 1012 10 16 N/A
3:15 pm 15:15 Cloudy 70 21 64 18 83 83 ESE 6 9 29.88 1012 10 16 N/A
3:35 pm 15:35 Cloudy 70 21 64 18 83 83 ESE 7 11 29.88 1012 10 16 N/A
3:55 pm 15:55 Cloudy 70 21 64 18 83 83 SE 7 11 29.88 1012 10 16 N/A
4:15 pm 16:15 Cloudy 70 21 64 18 83 83 ESE 5 7 29.85 1011 10 16 N/A
4:35 pm 16:35 Cloudy 70 21 66 19 88 88 ESE 7 11 29.85 1011 10 16 N/A
4:55 pm 16:55 Cloudy 68 20 64 18 88 88 SE 7 11 29.85 1011 10 16 N/A
5:15 pm 17:15 Cloudy 68 20 64 18 88 88 SE 6 9 29.85 1011 10 16 N/A
5:35 pm 17:35 Cloudy 68 20 64 18 88 88 ESE 7 11 29.85 1011 10 16 N/A
5:55 pm 17:55 Cloudy 68 20 64 18 88 88 ESE 6 9 29.85 1011 10 16 N/A
6:15 pm 18:15 Cloudy with Light Rain 68 20 64 18 88 88 ESE 3 6 29.85 1011 10 16 N/A
6:35 pm 18:35 Cloudy 68 20 64 18 88 88 ENE 5 7 29.85 1011 10 16 N/A
6:55 pm 18:55 Cloudy 68 20 64 18 88 88 ENE 3 6 29.85 1011 10 16 N/A
7:15 pm 19:15 Cloudy 66 19 64 18 94 94 E 5 7 29.85 1011 10 16 N/A
7:35 pm 19:35 Cloudy 68 20 64 18 88 88 ESE 3 6 29.85 1011 10 16 N/A
7:55 pm 19:55 Cloudy 68 20 64 18 88 88 ESE 3 6 29.85 1011 10 16 N/A
8:15 pm 20:15 Cloudy 66 19 64 18 94 94 N N/A 29.85 1011 10 16 N/A
8:35 pm 20:35 Cloudy 66 19 64 18 94 94 N N/A 29.85 1011 10 16 N/A
8:55 pm 20:55 Cloudy 66 19 66 19 100 100 N N/A 29.85 1011 10 16 N/A
9:15 pm 21:15 Cloudy 66 19 66 19 100 100 N N/A 29.85 1011 10 16 N/A
9:35 pm 21:35 Cloudy 66 19 66 19 100 100 E 3 6 29.85 1011 10 16 N/A
9:55 pm 21:55 Cloudy 66 19 66 19 100 100 N N/A 29.85 1011 10 16 N/A
10:15 pm 22:15 Cloudy 66 19 66 19 100 100 N N/A 29.85 1011 10 16 N/A
10:35 pm 22:35 Cloudy 66 19 66 19 100 100 N N/A 29.85 1011 10 16 N/A
10:55 pm 22:55 Cloudy 66 19 66 19 100 100 ENE 3 6 29.85 1011 7 11 N/A
11:15 pm 23:15 Cloudy with Mist and Fog 66 19 66 19 100 100 N N/A 29.85 1011 5 8 N/A
11:35 pm 23:35 Cloudy with Mist and Fog 66 19 66 19 100 100 N N/A 29.85 1011 3 5 N/A
11:55 pm 23:55 Cloudy with Mist and Fog 64 18 64 18 100 100 N N/A 29.83 1010 2 3 N/A

Powered by AerisWeather